sat.trackr.live / text

‹ back to catalog

ICO G1

NORAD 32763 · 2008-016A

PAYLOAD ACTIVE UNKNOWN

§ Identity

Operator
Country
US
Launch date
2008-04-14
Launch site
AFETR
Launch vehicle
Mass (kg)
RCS (m²)
14.16

Purposes: comms

External: N2YO · Heavens-Above · Gunter

§ Orbital elements

Epoch: 2026-09-19T21:39:38.598912Z

Period
1,436.08 min
Inclination
5.5425°
Eccentricity
0.0002276
Mean motion
1.00272765 rev/d
Perigee alt
35,776.7 km
Apogee alt
35,795.9 km
Semi-major
42,164.5 km
B*
0.0000e+0
RAAN
35.8307°
Arg perigee
133.5996°
Mean anomaly
61.4542°
Rev number
6,749

§ Raw data

ICO G11 32763U 08016A   26262.90253008 -.00000174  00000+0  00000+0 0  99922 32763   5.5425  35.8307 0002276 133.5996  61.4542  1.00272765 67491

JSON: /api/v1/satellites/32763 · /tle

For live sub-satellite position, see the globe view (requires WebGL).

§ Visibility from observer

Set your observer location to see the next 7 days of passes ≥ 10°. The values pass through the URL so the page stays shareable.

No JS? Fill the form by hand. The geolocation button needs JavaScript.